Hourly Data Report for September 07, 2021

WINNIPEG THE FORKS
MANITOBA
Current Station Operator: ECCC - MSC

49°53'18.008" N
97°07'46.007" W
230.00 m
5023262
71579
XWN

Download Data

Hourly Data (September 2021)
Hourly Data Report for September 7, 2021
TIME
LST
Temp Definition
°C
Dew Point Definition
°C
Rel Hum Definition
%
Precip. Amount Definition
mm

Wind Dir Definition
10's deg

Wind Spd Definition
km/h
Visibility Definition
km
Stn Press Definition
kPa
Hmdx Definition


Wind Chill Definition


Weather Definition


00:00 17.3 10.0 62 0.0 28 6   97.76     LegendNANA
01:00 16.9 8.8 59 0.0 26 8   97.77     LegendNANA
02:00 16.0 8.7 62 0.0 26 9   97.79     LegendNANA
03:00 15.2 8.7 65 0.0 27 7   97.81     LegendNANA
04:00 14.5 8.9 69 0.0 27 6   97.87     LegendNANA
05:00 14.4 9.1 71 0.0 27 7   97.92     LegendNANA
06:00 14.2 9.6 74 0.0 27 6   97.94     LegendNANA
07:00 14.4 10.0 75 0.0 26 6   97.96     LegendNANA
08:00 16.6 11.0 69 0.0 28 7   97.99     LegendNANA
09:00 18.5 10.5 59 0.0 29 7   98.00     LegendNANA
10:00 20.8 8.8 46 0.0 28 9   97.99     LegendNANA
11:00 22.6 9.6 43 0.0 32 6   98.00     LegendNANA
12:00 22.8 6.4 35 0.0 29 13   98.02     LegendNANA
13:00 23.3 5.9 32 0.0 29 10   98.01     LegendNANA
14:00 23.2 5.2 31 0.0 30 14   98.00     LegendNANA
15:00 23.3 5.2 31 0.0 32 16   98.00     LegendNANA
16:00 23.1 6.1 33 0.0 32 13   98.02     LegendNANA
17:00 22.0 5.6 34 0.0 32 17   98.07     LegendNANA
18:00 21.5 7.0 39 0.0 32 15   98.13     LegendNANA
19:00 20.4 9.0 48 0.0 34 10   98.18     LegendNANA
20:00 18.4 10.6 61 0.0 33 7   98.25     LegendNANA
21:00 17.4 10.2 63 0.0 36 4   98.30     LegendNANA
22:00 17.1 10.0 63 0.0 33 5   98.33     LegendNANA
23:00 17.0 9.9 63 0.0 30 6   98.36     LegendNANA

Notes on Data Quality.

Legend

  • E = Estimated
  • M = Missing
  • NA = Not Available*
  • [empty] = Indicates an unobserved value
Date modified: